Total_Precipitation_Accumulation
0.95 0.85 0.85 0.97 0.92 0.88 0.93 0.96 0.78 0.64 0.53 0.43 0.41 0.36 0.34 0.29 0.22 0.20 0.25 0.29 0.38 0.47 0.55 0.52 0.38 0.23 0.17 0.23 0.31 0.39 0.47 0.56 0.66 0.64 0.50 0.43 0.39 0.30 0.21 0.14 0.14 0.10 0.07
1.00 1.00 0.88 0.95 1.07 1.09 1.03 0.97 0.88 0.71 0.59 0.51 0.46 0.42 0.35 0.29 0.26 0.22 0.21 0.24 0.29 0.33 0.47 0.61 0.52 0.36 0.27 0.27 0.33 0.36 0.39 0.45 0.55 0.57 0.51 0.43 0.44 0.37 0.27 0.20 0.20 0.14 0.10
1.01 1.01 0.87 0.90 1.03 1.20 1.15 1.04 0.93 0.84 0.61 0.48 0.45 0.42 0.41 0.31 0.29 0.31 0.24 0.20 0.20 0.28 0.42 0.63 0.69 0.53 0.41 0.37 0.35 0.33 0.34 0.38 0.45 0.49 0.50 0.45 0.40 0.37 0.29 0.23 0.23 0.21 0.18
1.02 1.08 0.97 0.92 1.06 1.23 1.35 1.35 1.15 1.01 0.80 0.61 0.53 0.48 0.43 0.39 0.33 0.30 0.28 0.25 0.21 0.21 0.30 0.46 0.66 0.79 0.64 0.45 0.35 0.31 0.27 0.27 0.29 0.34 0.36 0.34 0.29 0.26 0.24 0.25 0.28 0.30 0.28
0.95 1.12 1.16 1.11 1.13 1.26 1.30 1.33 1.27 1.05 0.94 0.82 0.65 0.54 0.43 0.36 0.36 0.27 0.26 0.26 0.27 0.22 0.20 0.22 0.35 0.46 0.50 0.54 0.51 0.36 0.28 0.23 0.21 0.21 0.23 0.20 0.17 0.19 0.21 0.23 0.27 0.29 0.29
1.17 1.30 1.35 1.33 1.31 1.33 1.27 1.36 1.49 1.22 1.00 0.98 0.89 0.68 0.51 0.38 0.37 0.30 0.26 0.23 0.25 0.25 0.23 0.18 0.17 0.12 0.22 0.41 0.46 0.36 0.28 0.26 0.20 0.17 0.16 0.13 0.12 0.13 0.16 0.19 0.21 0.22 0.25
1.38 1.51 1.60 1.61 1.51 1.38 1.37 1.51 1.79 1.65 1.28 1.11 1.08 0.89 0.66 0.48 0.45 0.35 0.29 0.26 0.25 0.26 0.25 0.25 0.19 0.14 0.10 0.15 0.19 0.30 0.32 0.33 0.28 0.22 0.16 0.12 0.10 0.08 0.10 0.13 0.15 0.17 0.20
1.48 1.55 1.73 1.82 1.73 1.68 1.74 1.71 1.84 1.93 1.69 1.44 1.33 1.39 1.10 0.81 0.51 0.35 0.32 0.26 0.26 0.30 0.28 0.30 0.26 0.19 0.12 0.10 0.07 0.14 0.23 0.31 0.32 0.25 0.18 0.15 0.11 0.07 0.07 0.08 0.10 0.13 0.15
1.68 1.64 1.74 1.93 1.87 1.80 1.79 1.91 2.09 2.26 2.15 1.93 1.69 1.68 1.32 1.06 0.96 0.54 0.35 0.32 0.29 0.29 0.31 0.32 0.31 0.28 0.23 0.16 0.11 0.09 0.10 0.17 0.28 0.28 0.23 0.18 0.14 0.10 0.08 0.08 0.09 0.09 0.10
1.60 1.58 1.70 1.90 2.02 2.09 2.10 2.15 2.11 2.30 2.40 2.19 2.13 1.81 1.47 1.25 1.26 1.04 0.64 0.42 0.39 0.35 0.33 0.33 0.30 0.34 0.33 0.25 0.21 0.14 0.09 0.10 0.23 0.33 0.32 0.27 0.19 0.14 0.11 0.09 0.09 0.10 0.11
1.68 1.60 1.63 1.70 1.75 1.82 1.92 2.05 2.08 2.22 2.27 2.32 2.29 2.12 1.89 1.63 1.19 1.11 1.07 0.81 0.59 0.40 0.37 0.39 0.39 0.38 0.38 0.34 0.33 0.22 0.14 0.11 0.16 0.30 0.39 0.36 0.27 0.20 0.14 0.10 0.09 0.10 0.10
1.66 1.57 1.52 1.60 1.63 1.63 1.74 1.85 1.92 2.09 2.20 2.27 2.29 2.14 1.94 1.80 1.55 1.29 1.12 1.03 0.92 0.63 0.48 0.44 0.45 0.46 0.48 0.46 0.42 0.40 0.27 0.17 0.15 0.22 0.31 0.40 0.36 0.27 0.20 0.13 0.11 0.11 0.12
1.30 1.30 1.23 1.28 1.40 1.45 1.63 1.69 1.62 1.65 1.79 1.93 2.05 2.06 1.98 1.83 1.77 1.65 1.48 1.30 1.10 0.79 0.63 0.51 0.43 0.50 0.59 0.64 0.66 0.67 0.42 0.28 0.20 0.19 0.22 0.26 0.33 0.34 0.30 0.24 0.21 0.20 0.20
1.00 0.96 0.96 0.97 1.02 1.11 1.31 1.51 1.49 1.50 1.56 1.62 1.69 1.88 1.92 1.85 1.84 1.64 1.48 1.44 1.25 1.00 0.75 0.57 0.45 0.42 0.51 0.61 0.87 0.94 0.57 0.45 0.34 0.26 0.24 0.22 0.22 0.27 0.32 0.34 0.32 0.30 0.28
0.78 0.75 0.78 0.85 0.89 0.89 0.99 1.11 1.29 1.36 1.41 1.48 1.50 1.60 1.63 1.67 1.66 1.53 1.49 1.40 1.26 1.06 0.88 0.72 0.62 0.53 0.53 0.57 0.85 0.83 0.64 0.58 0.49 0.41 0.32 0.25 0.23 0.23 0.27 0.29 0.29 0.29 0.27
0.70 0.70 0.66 0.67 0.72 0.72 0.82 0.92 0.98 1.10 1.17 1.30 1.46 1.57 1.57 1.57 1.59 1.52 1.46 1.44 1.32 1.08 0.92 0.80 0.69 0.63 0.73 0.71 0.85 0.76 0.77 0.85 0.63 0.49 0.40 0.34 0.28 0.24 0.20 0.19 0.18 0.17 0.17
0.54 0.55 0.57 0.63 0.62 0.63 0.64 0.64 0.69 0.76 0.82 0.92 0.99 1.10 1.29 1.47 1.51 1.51 1.53 1.51 1.45 1.27 1.02 0.94 0.77 0.74 0.85 0.87 0.87 0.80 0.84 0.90 0.74 0.61 0.46 0.39 0.34 0.28 0.24 0.22 0.19 0.15 0.13
0.46 0.47 0.52 0.57 0.56 0.61 0.63 0.62 0.61 0.61 0.68 0.77 0.80 0.81 0.92 1.14 1.26 1.36 1.42 1.43 1.44 1.40 1.21 1.15 1.07 0.87 0.83 0.87 0.97 1.03 0.97 0.95 0.92 0.91 0.77 0.56 0.45 0.36 0.29 0.24 0.20 0.15 0.12
0.57 0.60 0.60 0.63 0.60 0.62 0.62 0.63 0.64 0.63 0.64 0.71 0.75 0.77 0.82 0.93 1.06 1.12 1.22 1.30 1.37 1.46 1.40 1.18 1.21 1.16 0.98 0.94 0.97 1.03 1.07 1.13 1.05 1.03 1.06 0.91 0.71 0.57 0.46 0.37 0.30 0.24 0.18
0.51 0.53 0.62 0.69 0.76 0.81 0.80 0.76 0.73 0.69 0.65 0.68 0.74 0.80 0.81 0.81 0.92 1.12 1.25 1.30 1.33 1.39 1.45 1.37 1.30 1.29 1.15 1.04 1.00 1.02 1.15 1.24 1.22 1.08 1.00 0.98 0.92 0.78 0.64 0.52 0.42 0.35 0.31
0.43 0.44 0.52 0.60 0.70 0.78 0.83 0.82 0.68 0.58 0.59 0.64 0.64 0.65 0.74 0.81 0.83 0.96 1.11 1.31 1.32 1.37 1.41 1.44 1.36 1.23 1.11 1.02 0.96 0.94 1.01 1.21 1.27 1.25 1.19 1.05 0.93 0.78 0.67 0.60 0.54 0.47 0.40
0.37 0.39 0.43 0.42 0.44 0.48 0.63 0.62 0.50 0.42 0.47 0.57 0.64 0.67 0.68 0.69 0.70 0.74 0.76 0.99 1.16 1.25 1.30 1.28 1.30 1.20 1.08 1.00 1.04 1.02 0.94 1.00 1.15 1.16 1.05 1.14 1.08 0.93 0.81 0.69 0.71 0.71 0.62
0.34 0.35 0.31 0.27 0.28 0.32 0.36 0.35 0.40 0.43 0.46 0.51 0.59 0.68 0.73 0.71 0.76 0.83 0.78 0.82 0.90 0.96 1.04 1.10 1.11 1.06 1.03 0.99 1.03 1.05 0.98 0.90 0.82 0.91 0.92 1.03 1.07 0.99 0.88 0.79 0.75 0.69 0.64
0.28 0.36 0.31 0.29 0.32 0.28 0.30 0.34 0.37 0.41 0.55 0.60 0.60 0.61 0.72 0.77 0.82 0.96 0.94 1.00 0.91 0.82 0.81 0.84 0.93 0.95 0.90 0.99 1.06 1.21 1.21 1.04 0.93 0.93 0.88 0.91 0.92 0.86 0.79 0.76 0.78 0.64 0.55
0.19 0.18 0.22 0.37 0.37 0.32 0.40 0.37 0.32 0.40 0.53 0.61 0.56 0.59 0.71 0.80 0.94 1.03 1.08 1.08 0.97 0.87 0.91 0.97 1.02 1.04 1.03 1.08 1.14 1.18 1.20 1.14 1.06 1.02 0.86 0.75 0.74 0.73 0.74 0.70 0.69 0.68 0.60
0.09 0.10 0.14 0.26 0.33 0.34 0.34 0.24 0.24 0.36 0.50 0.58 0.59 0.60 0.82 0.83 0.90 0.94 1.00 1.09 1.08 0.95 0.88 0.90 0.93 0.96 0.95 1.00 1.14 1.14 1.19 1.19 1.06 1.01 0.87 0.70 0.67 0.72 0.81 0.73 0.60 0.55 0.53